Location: Dal�� Lhota
(48.7500°N, 14.0167°E)
Time: 18:29:44
(UTC+00:00)

Explorer 7 - Pass Details

Date: 05 August 2021
Orbit: 484 x 676 km, 50.3° (Epoch: 21 September)

Event Time Altitude Azimuth Distance (km) Brightness Sun altitude
Exits shadow 03:52:29 - 249° (WSW) 2,584 9.5 0.5°
Rises 03:52:34 0° 249° (WSW) 2,547 9.5 0.6°
Reaches altitude 10° 03:54:42 10° 249° (WSW) 1,677 8.6 0.9°
Maximum altitude 03:58:29 82° 162° (SSE) 511 6.7 1.4°
Drops below altitude 10° 04:02:26 10° 75° (ENE) 1,750 11.6 2.0°
Sets 04:04:42 0° 75° (ENE) 2,669 12.9 2.4°
